Weather Roundup
Issued by NWS

Home | Current Version | Previous Version | Text Only | Print | Product List | Glossary On
Versions: 1 2 3 4 5 6 7 8 9 10 11 12 13 14 15 16 17 18 19 20 21 22 23 24 25 26 27 28 29 30 31 32 33 34 35 36 37 38 39 40 41 42 43 44 45 46 47 48 49 50
000
NZUS93 KARX 050059
HRRWXR

CURRENT HOURLY OBSERVATIONS ACROSS
MUCH OF THE UPPER MISSISSIPPI VALLEY
NATIONAL WEATHER SERVICE LA CROSSE WI
800 PM CDT MON MAY 04 2015


...SOUTHEAST MINNESOTA...


CITY           SKY/WX    TMP DP  RH WIND       PRES   REMARKS
ROCHESTER      CLOUDY    61  40  45 N8        30.16F
ROCHESTER/MAYO FAIR      65  36  33 NE8       30.16F
WINONA         CLOUDY    63  39  42 CALM      30.15F
AUSTIN         CLOUDY    61  41  48 NE5       30.15S
ALBERT LEA     MOCLDY    63  43  48 E6        30.15S
DODGE CENTER   CLOUDY    64  34  32 NE7       30.16F
PRESTON        CLOUDY    60  41  49 NE5       30.16S
OWATONNA       CLOUDY    63  32  31 E5        30.16S
FARIBAULT      MOCLDY    64  32  29 E3        30.16F
$$

...ELSEWHERE IN MINNESOTA...


CITY           SKY/WX    TMP DP  RH WIND       PRES   REMARKS
MINNEAPOLIS    MOCLDY    69  26  20 NE7       30.16S
INTNL FALLS    PTCLDY    59  27  29 SW5       30.18S
DULUTH         PTCLDY    62  17  17 W6        30.19R
RED WING       CLOUDY    63  37  39 CALM      30.15S
REDWOOD FALLS  MOCLDY    68  26  20 E9        30.15S
MANKATO        MOCLDY    64  34  32 E6        30.16S
WORTHINGTON    CLOUDY    64  28  25 E9        30.15S
FAIRMONT       MOCLDY    66  28  24 NE12      30.14S
$$

...SOUTHWEST WISCONSIN...


CITY           SKY/WX    TMP DP  RH WIND       PRES   REMARKS
LA CROSSE      CLOUDY    66  42  41 N9        30.12F
PRAIRIE DU CHI CLOUDY    70  45  40 N3        30.10S
BOSCOBEL       CLOUDY    70  49  47 CALM      30.11S
LONE ROCK      NOT AVBL
PLATTEVILLE    CLOUDY    68  56  65 E8        30.11S
FORT MC COY    CLOUDY    66  33  29 N5        30.15S
VIROQUA        FAIR      64  44  49 NE6       30.14S
WIS DELLS      MOCLDY    67  44  43 CALM      30.13R
$$

...ELSEWHERE IN WISCONSIN...


CITY           SKY/WX    TMP DP  RH WIND       PRES   REMARKS
MILWAUKEE      MOCLDY    51  37  58 N6        30.18R
MADISON        MOCLDY    66  47  50 SE13      30.14R
GREEN BAY      MOCLDY    58  40  51 E7        30.20R
EAU CLAIRE     CLOUDY    64  33  31 CALM      30.16S
BLACK RVR FLS  FAIR      66  32  27 NE6       30.15S
MEDFORD        MOCLDY    63  31  30 CALM      30.17S
WAUSAU         MOCLDY    65  29  25 N5        30.16R
WIS RAPIDS     CLOUDY    61  38  42 N3        30.16S
MARSHFIELD     CLOUDY    65  38  36 CALM      30.16S
RICE LAKE      MOCLDY    65  24  20 N5        30.18F
$$

...NORTHEAST IOWA...


CITY           SKY/WX    TMP DP  RH WIND       PRES   REMARKS
DECORAH        CLOUDY    66  43  42 N5        30.12S
MASON CITY     CLOUDY    62  43  49 NE9       30.15S
CHARLES CITY   CLOUDY    64  46  52 NE7       30.13S
OELWEIN        CLOUDY    66  54  63 NE5       30.12S
$$

...ELSEWHERE IN IOWA...


CITY           SKY/WX    TMP DP  RH WIND       PRES   REMARKS
DES MOINES     LGT RAIN  66  61  84 NE10      30.08R
IOWA CITY      CLOUDY    70  62  76 NE10      30.07F
FORT DODGE     CLOUDY    57  52  82 E6        30.14S
$$

...NORTHERN ILLINOIS...


CITY           SKY/WX    TMP DP  RH WIND       PRES   REMARKS
CHICAGO-OHARE  MOCLDY    57  47  69 NE8       30.17R
CHICAGO-MIDWAY MOCLDY    60  51  72 E10       30.17R
MOLINE         TSTM      68  61  78 E13       30.07S
ROCKFORD       MOCLDY    67  55  65 E10       30.14R
PEORIA         LGT RAIN  72  63  73 E6        30.08S
$$

NOTE: "FAIR" INDICATES FEW OR NO CLOUDS BELOW 12,000 FEET WITH NO
SIGNIFICANT WEATHER AND/OR OBSTRUCTIONS TO VISIBILITY. WIND
SPEEDS ARE IN MILES-PER-HOUR.



USA.gov is the U.S. government's official web portal to all federal, state and local government web resources and services.